Kenai, AK

6:48 AM AKST on December 09, 2019 (GMT -0900)
Kenai Municipal

Weather History for PAEN - October, 2019

Change the Weather History Date:

Friday, October 11, 2019

  Actual Average Record
Temperature  
Mean Temperature 42 °F -  
Max Temperature 48 °F 44 °F 57 °F (1969)
Min Temperature 37 °F 31 °F 12 °F (1961)
Degree Days  
Heating Degree Days 22    
Moisture  
Dew Point 31 °F    
Average Humidity 66    
Maximum Humidity 93    
Minimum Humidity 43    
Precipitation  
Precipitation 0.00 in - - ()
Sea Level Pressure  
Sea Level Pressure 29.60 in    
Wind  
Wind Speed 7 mph (NNW)    
Max Wind Speed 17 mph    
Max Gust Speed 23 mph    
Visibility 10 miles    
Events Rain    
Averages and records for this station are not official NWS values.
T = Trace of Precipitation, MM = Missing Value Source: NWS Daily Summary

Daily Weather History Graph

Daily Weather History Graph

Search for Another Location

Airport or City:

Astronomy

Oct. 11, 2019 Rise Set
Actual Time 8:35 AM AKDT 7:06 PM AKDT
Civil Twilight 7:53 AM AKDT 7:49 PM AKDT
Nautical Twilight 7:04 AM AKDT 8:37 PM AKDT
Astronomical Twilight 6:13 AM AKDT 9:27 PM AKDT
Moon 7:23 PM AKDT (10/11) 5:32 AM AKDT (10/11)
Length of Visible Light 11h 55m
Length of Day
10h 30m
Waxing Gibbous, 96% of the Moon is Illuminated
Oct 11
Waxing Gibbous
Oct 13
Full
Oct 21
Last Quarter
Oct 27
New
Nov 4
First Quarter

Hourly Weather History & Observations

Time (AKDT) Temp. Windchill Dew Point Humidity Pressure Visibility Wind Dir Wind Speed Gust Speed Precip Events Conditions
12:53 AM 37.0 °F - 35.1 °F 93% 29.57 in 10.0 mi Calm Calm - N/A   Overcast
1:31 AM 37.9 °F 33.5 °F 35.1 °F 89% 29.56 in 10.0 mi ENE 5.8 mph - 0.00 in Rain Light Rain
1:53 AM 39.2 °F 35.0 °F 35.6 °F 87% 29.56 in 10.0 mi NE 5.8 mph - N/A   Overcast
2:53 AM 39.9 °F 32.9 °F 34.0 °F 79% 29.55 in 10.0 mi NNE 11.5 mph - 0.00 in Rain Light Rain
3:53 AM 39.9 °F 33.4 °F 34.0 °F 79% 29.54 in 10.0 mi North 10.4 mph - 0.00 in Rain Light Rain
4:53 AM 39.9 °F 35.8 °F 34.0 °F 79% 29.53 in 10.0 mi NNW 5.8 mph - 0.00 in   Overcast
5:53 AM 39.9 °F 32.9 °F 35.1 °F 83% 29.52 in 10.0 mi North 11.5 mph - 0.00 in   Overcast
6:53 AM 41.0 °F - 34.0 °F 76% 29.51 in 10.0 mi Calm Calm - N/A   Overcast
7:53 AM 43.0 °F 37.7 °F 36.0 °F 76% 29.52 in 10.0 mi West 9.2 mph - N/A   Overcast
8:53 AM 42.1 °F 37.1 °F 36.0 °F 79% 29.52 in 10.0 mi SW 8.1 mph - N/A   Overcast
9:53 AM 39.9 °F 36.7 °F 36.0 °F 86% 29.54 in 10.0 mi South 4.6 mph - N/A   Overcast
10:53 AM 44.1 °F 39.0 °F 36.0 °F 73% 29.55 in 10.0 mi SW 9.2 mph - N/A   Mostly Cloudy
11:53 AM 45.0 °F 41.8 °F 30.0 °F 56% 29.55 in 10.0 mi West 5.8 mph - N/A   Overcast
12:53 PM 46.9 °F - 30.0 °F 52% 29.57 in 10.0 mi WNW 4.6 mph - N/A   Overcast
1:53 PM 48.9 °F - 28.0 °F 44% 29.59 in 10.0 mi WNW 5.8 mph - N/A   Overcast
2:53 PM 48.9 °F - 27.0 °F 43% 29.60 in 10.0 mi NNE 9.2 mph - N/A   Overcast
3:53 PM 48.0 °F - 27.0 °F 44% 29.61 in 10.0 mi NNE 4.6 mph - N/A   Mostly Cloudy
4:53 PM 46.9 °F - 27.0 °F 46% 29.62 in 10.0 mi North 12.7 mph - N/A   Mostly Cloudy
5:53 PM 46.0 °F 39.9 °F 26.1 °F 46% 29.63 in 10.0 mi North 13.8 mph - N/A   Overcast
6:53 PM 44.1 °F 37.4 °F 28.0 °F 53% 29.66 in 10.0 mi North 13.8 mph - N/A   Overcast
7:53 PM 45.0 °F 37.6 °F 25.0 °F 46% 29.68 in 10.0 mi North 17.3 mph - N/A   Overcast
8:53 PM 43.0 °F 37.7 °F 28.0 °F 56% 29.72 in 10.0 mi NNW 9.2 mph 23.0 mph 0.00 in   Overcast
9:53 PM 43.0 °F 37.7 °F 27.0 °F 53% 29.74 in 10.0 mi North 9.2 mph - 0.00 in   Overcast
10:53 PM 42.1 °F 37.7 °F 28.9 °F 60% 29.76 in 10.0 mi NW 6.9 mph - N/A   Overcast
11:53 PM 41.0 °F 35.2 °F 30.9 °F 67% 29.77 in 10.0 mi West 9.2 mph - N/A   Overcast